Flag Weather past 2 weeks in Shanghai, Shanghai Municipality, China

Now
66 °F

Passing clouds.


Feels Like: 66 °F
Forecast: 59 / 68 °F
Wind: 8 mph from Southeast

Location: Shanghai Hongqiao Airport

Current Time: Nov 23, 2014 at 10:59:02 PM

Latest Report: Nov 23, 2014 at 10:30 PM


Visibility: N/A

Pressure: 30.04 "Hg

Humidity: 94%

Dew point: 64 °F

Location of ShanghaiLocation

Historic Weather in Shanghai — Graph

°F

Shanghai temperature yesterday

Maximum temperature yesterday: 73 °F (at 1:30 PM)
Minimum temperature yesterday: 57 °F (at 6:30 AM)
Average temperature yesterday: 64 °F

Past Weeks' High & Low Weather Summary

 TemperatureHumidityPressure
High73 °F (Nov 22, 1:30 PM)100% (Nov 22, 3:00 AM)30.45 "Hg (Nov 22, 3:00 AM)
Low45 °F (Nov 14, 3:30 AM)22% (Nov 14, 1:00 PM)30.04 "Hg (Nov 11, 1:00 PM)
Average58 °F67%30.24 "Hg
* Reported Nov 8 9:00 PM — Nov 23 9:30 PM, Shanghai, Weather by CustomWeather, © 2014

Note: Actual official high and low records may vary slightly from our data, if they occured in-between our weather recording intervals... More about our weather records

Advertising

Shanghai weather history for previous 24 hours

 ConditionsComfort  
Time TempWeatherWind HumidityBarometerVisibility
9:30 PM
Nov 23
66 °FClear.8 mph88%30.04 "Hg10 mi
9:00 PM66 °FClear.8 mph88%30.04 "Hg10 mi
8:30 PM66 °FClear.8 mph88%30.04 "Hg10 mi
8:00 PM66 °FClear.10 mph88%30.04 "Hg10 mi
7:30 PM68 °FClear.10 mph83%30.04 "Hg10 mi
7:00 PM68 °FClear.8 mph83%30.07 "Hg10 mi
6:30 PM68 °FClear.8 mph83%30.07 "Hg10 mi
6:00 PM68 °FClear.8 mph83%30.07 "Hg10 mi
5:30 PM68 °FPassing clouds.6 mph83%30.07 "HgN/A
5:00 PM70 °FPassing clouds.8 mph78%30.04 "HgN/A
4:30 PM70 °FScattered clouds.8 mph78%30.04 "HgN/A
4:00 PM72 °FScattered clouds.8 mph73%30.04 "HgN/A
3:30 PM72 °FScattered clouds.10 mph73%30.04 "HgN/A
3:00 PM72 °FScattered clouds.10 mph73%30.04 "HgN/A
2:30 PM72 °FScattered clouds.13 mph73%30.04 "HgN/A
2:00 PM73 °FPassing clouds.13 mph69%30.04 "HgN/A
1:30 PM73 °FScattered clouds.13 mph69%30.07 "HgN/A
1:00 PM72 °FPartly sunny.10 mph73%30.07 "HgN/A
12:30 PM72 °FPartly sunny.10 mph73%30.09 "HgN/A
12:00 PM72 °FPartly sunny.13 mph73%30.09 "HgN/A
11:30 AM70 °FPartly sunny.17 mph78%30.09 "HgN/A
11:00 AM70 °FLight rain. Scattered clouds.13 mph78%30.12 "Hg4 mi
10:30 AM68 °FLight rain. Scattered clouds.8 mph83%30.15 "Hg4 mi
10:00 AM66 °FLight rain. Passing clouds.6 mph88%30.15 "Hg4 mi
9:30 AM66 °FClear.6 mph88%30.15 "Hg4 mi
9:00 AM66 °FFog.6 mph88%30.15 "Hg3 mi
8:30 AM66 °FFog.8 mph88%30.15 "Hg3 mi
8:00 AM64 °FFog.6 mph94%30.15 "Hg2 mi
7:30 AM63 °FFog.6 mph94%30.15 "Hg2 mi
7:00 AM63 °FFog.3 mph94%30.15 "Hg2 mi
6:30 AM63 °FFog.3 mph94%30.12 "Hg2 mi
6:00 AM63 °FFog.6 mph94%30.15 "Hg2 mi
5:30 AM63 °FFog.6 mph94%30.15 "Hg2 mi
5:00 AM63 °FFog.6 mph94%30.12 "Hg3 mi
4:30 AM63 °FFog.3 mph94%30.15 "Hg3 mi
4:00 AM63 °FFog.3 mph94%30.12 "Hg3 mi
3:30 AM61 °FFog.No wind94%30.15 "Hg2 mi
3:00 AM61 °FFog.1 mph94%30.15 "Hg3 mi
2:30 AM63 °FFog.No wind88%30.15 "Hg3 mi
2:00 AM63 °FFog.1 mph94%30.15 "Hg3 mi
1:30 AM63 °FFog.1 mph94%30.15 "Hg3 mi
1:00 AM63 °FFog.3 mph94%30.15 "Hg3 mi
12:30 AM63 °FFog.6 mph94%30.15 "Hg3 mi
12:00 AM63 °FFog.3 mph94%30.15 "Hg3 mi
11:30 PM
Nov 22
63 °FFog.6 mph94%30.18 "Hg3 mi
11:00 PM63 °FFog.3 mph94%30.18 "Hg3 mi
10:30 PM63 °FFog.6 mph94%30.18 "Hg3 mi
10:00 PM64 °FFog.6 mph88%30.18 "Hg3 mi
Weather by CustomWeather, © 2014

See weather overviewHow to use our weather pages